Time,TemperatureF,DewpointF,PressureIn,WindDirection,WindDirectionDegrees,WindSpeedMPH,WindSpeedGustMPH,Humidity,HourlyPrecipIn,Conditions,Clouds,dailyrainin,SolarRadiationWatts/m^2,SoftwareType,DateUTC
2013-03-05 00:00:00,24.0,16.0,30.00,West,271,0.0,0.0,71,0.00,,,0.00,0,weatherlink.com 1.10,2013-03-05 07:00:00,
2013-03-05 00:15:00,23.1,15.0,30.00,West,271,0.0,0.0,72,0.00,,,0.00,0,weatherlink.com 1.10,2013-03-05 07:15:00,
2013-03-05 00:30:00,23.1,15.0,30.01,West,271,0.0,2.0,71,0.00,,,0.00,0,weatherlink.com 1.10,2013-03-05 07:30:00,
2013-03-05 00:45:00,22.3,14.0,30.01,West,271,0.0,1.0,70,0.00,,,0.00,0,weatherlink.com 1.10,2013-03-05 07:45:00,
2013-03-05 01:00:00,24.6,16.0,30.02,WSW,247,0.0,5.0,70,0.00,,,0.00,0,weatherlink.com 1.10,2013-03-05 08:00:00,
2013-03-05 01:15:00,24.5,16.0,30.04,West,259,0.0,1.0,70,0.00,,,0.00,0,weatherlink.com 1.10,2013-03-05 08:15:00,
2013-03-05 01:30:00,24.1,16.0,30.03,WSW,250,0.0,2.0,70,0.00,,,0.00,0,weatherlink.com 1.10,2013-03-05 08:30:00,
2013-03-05 01:45:00,24.4,16.0,30.04,WSW,250,0.0,2.0,69,0.00,,,0.00,0,weatherlink.com 1.10,2013-03-05 08:45:00,
2013-03-05 02:00:00,23.3,16.0,30.04,WNW,300,0.0,3.0,72,0.00,,,0.00,0,weatherlink.com 1.10,2013-03-05 09:00:00,
2013-03-05 02:15:00,23.6,14.0,30.06,WSW,241,1.0,3.0,67,0.00,,,0.00,0,weatherlink.com 1.10,2013-03-05 09:15:00,
2013-03-05 02:30:00,24.1,13.0,30.07,SW,232,0.0,3.0,64,0.00,,,0.00,0,weatherlink.com 1.10,2013-03-05 09:30:00,
2013-03-05 02:45:00,23.4,13.0,30.08,WSW,250,3.0,3.0,65,0.00,,,0.00,0,weatherlink.com 1.10,2013-03-05 09:45:00,
2013-03-05 03:00:00,23.3,12.0,30.09,ESE,114,2.0,3.0,63,0.00,,,0.00,0,weatherlink.com 1.10,2013-03-05 10:00:00,
2013-03-05 03:16:00,22.2,12.0,30.09,ESE,111,2.0,2.0,65,0.00,,,0.00,0,weatherlink.com 1.10,2013-03-05 10:16:00,
2013-03-05 03:31:00,21.7,12.0,30.10,East,83,0.0,3.0,65,0.00,,,0.00,0,weatherlink.com 1.10,2013-03-05 10:31:00,
2013-03-05 03:46:00,21.6,11.0,30.10,SW,219,0.0,2.0,65,0.00,,,0.00,0,weatherlink.com 1.10,2013-03-05 10:46:00,
2013-03-05 04:01:00,21.7,11.0,30.11,SE,127,1.0,2.0,64,0.00,,,0.00,0,weatherlink.com 1.10,2013-03-05 11:01:00,
2013-03-05 04:16:00,22.0,11.0,30.12,SE,130,0.0,2.0,64,0.00,,,0.00,0,weatherlink.com 1.10,2013-03-05 11:16:00,
2013-03-05 04:31:00,22.1,11.0,30.13,ESE,111,0.0,2.0,63,0.00,,,0.00,0,weatherlink.com 1.10,2013-03-05 11:31:00,
2013-03-05 04:46:00,22.2,11.0,30.14,East,99,1.0,2.0,63,0.00,,,0.00,0,weatherlink.com 1.10,2013-03-05 11:46:00,
2013-03-05 05:01:00,21.6,11.0,30.14,SE,137,0.0,2.0,64,0.00,,,0.00,0,weatherlink.com 1.10,2013-03-05 12:01:00,
2013-03-05 05:16:00,22.4,11.0,30.15,South,181,0.0,2.0,61,0.00,,,0.00,0,weatherlink.com 1.10,2013-03-05 12:16:00,
2013-03-05 05:31:00,21.8,11.0,30.16,South,180,0.0,1.0,63,0.00,,,0.00,0,weatherlink.com 1.10,2013-03-05 12:31:00,
2013-03-05 05:46:00,23.0,10.0,30.16,WNW,292,0.0,2.0,59,0.00,,,0.00,0,weatherlink.com 1.10,2013-03-05 12:46:00,
2013-03-05 06:01:00,23.0,10.0,30.16,West,259,1.0,3.0,59,0.00,,,0.00,0,weatherlink.com 1.10,2013-03-05 13:01:00,
2013-03-05 06:16:00,23.2,10.0,30.17,WNW,295,1.0,3.0,58,0.00,,,0.00,0,weatherlink.com 1.10,2013-03-05 13:16:00,
2013-03-05 06:31:00,23.6,9.0,30.18,WNW,300,0.0,2.0,55,0.00,,,0.00,5,weatherlink.com 1.10,2013-03-05 13:31:00,
2013-03-05 06:46:00,23.5,10.0,30.18,SSE,167,1.0,5.0,56,0.00,,,0.00,12,weatherlink.com 1.10,2013-03-05 13:46:00,
2013-03-05 07:01:00,23.6,10.0,30.19,South,188,0.0,2.0,56,0.00,,,0.00,18,weatherlink.com 1.10,2013-03-05 14:01:00,
2013-03-05 07:16:00,23.6,9.0,30.20,SW,233,3.0,4.0,55,0.00,,,0.00,21,weatherlink.com 1.10,2013-03-05 14:16:00,
2013-03-05 07:31:00,24.2,8.0,30.20,West,272,3.0,6.0,51,0.00,,,0.00,30,weatherlink.com 1.10,2013-03-05 14:31:00,
2013-03-05 07:46:00,24.6,9.0,30.21,West,275,1.0,4.0,51,0.00,,,0.00,40,weatherlink.com 1.10,2013-03-05 14:46:00,
2013-03-05 08:01:00,25.5,8.0,30.22,North,360,0.0,6.0,47,0.00,,,0.00,53,weatherlink.com 1.10,2013-03-05 15:01:00,
2013-03-05 08:16:00,25.7,7.0,30.23,North,360,3.0,5.0,46,0.00,,,0.00,51,weatherlink.com 1.10,2013-03-05 15:16:00,
2013-03-05 08:31:00,26.5,8.0,30.23,WSW,243,0.0,6.0,45,0.00,,,0.00,84,weatherlink.com 1.10,2013-03-05 15:31:00,
2013-03-05 08:46:00,27.6,7.0,30.23,North,360,2.0,4.0,41,0.00,,,0.00,62,weatherlink.com 1.10,2013-03-05 15:46:00,
2013-03-05 09:01:00,29.1,6.0,30.23,North,360,2.0,3.0,38,0.00,,,0.00,202,weatherlink.com 1.10,2013-03-05 16:01:00,
2013-03-05 09:16:00,29.6,7.0,30.23,North,360,0.0,4.0,38,0.00,,,0.00,125,weatherlink.com 1.10,2013-03-05 16:16:00,
2013-03-05 09:32:00,31.5,4.0,30.24,WSW,257,1.0,4.0,31,0.00,,,0.00,557,weatherlink.com 1.10,2013-03-05 16:32:00,
2013-03-05 09:47:00,32.9,7.0,30.24,North,360,1.0,3.0,33,0.00,,,0.00,612,weatherlink.com 1.10,2013-03-05 16:47:00,
2013-03-05 10:02:00,34.0,8.0,30.24,WSW,248,2.0,4.0,33,0.00,,,0.00,652,weatherlink.com 1.10,2013-03-05 17:02:00,
2013-03-05 10:17:00,35.5,1.0,30.24,West,262,1.0,5.0,23,0.00,,,0.00,689,weatherlink.com 1.10,2013-03-05 17:17:00,
2013-03-05 10:32:00,36.3,5.0,30.24,WSW,248,1.0,3.0,27,0.00,,,0.00,724,weatherlink.com 1.10,2013-03-05 17:32:00,
2013-03-05 10:47:00,37.3,6.0,30.24,West,271,0.0,4.0,27,0.00,,,0.00,758,weatherlink.com 1.10,2013-03-05 17:47:00,
2013-03-05 11:02:00,38.6,5.0,30.25,West,276,1.0,4.0,25,0.00,,,0.00,782,weatherlink.com 1.10,2013-03-05 18:02:00,
2013-03-05 11:17:00,39.4,3.0,30.24,WSW,253,1.0,4.0,22,0.00,,,0.00,805,weatherlink.com 1.10,2013-03-05 18:17:00,
2013-03-05 11:32:00,40.7,3.0,30.23,WSW,251,3.0,6.0,21,0.00,,,0.00,824,weatherlink.com 1.10,2013-03-05 18:32:00,
2013-03-05 11:47:00,42.0,0.0,30.23,WNW,298,2.0,4.0,17,0.00,,,0.00,837,weatherlink.com 1.10,2013-03-05 18:47:00,
2013-03-05 12:02:00,42.5,3.0,30.22,West,276,1.0,3.0,19,0.00,,,0.00,846,weatherlink.com 1.10,2013-03-05 19:02:00,
2013-03-05 12:17:00,42.9,2.0,30.21,WSW,254,1.0,5.0,18,0.00,,,0.00,853,weatherlink.com 1.10,2013-03-05 19:17:00,
2013-03-05 12:32:00,43.6,1.0,30.21,West,268,3.0,4.0,17,0.00,,,0.00,851,weatherlink.com 1.10,2013-03-05 19:32:00,
2013-03-05 12:48:00,44.2,-1.0,30.20,West,271,3.0,4.0,15,0.00,,,0.00,851,weatherlink.com 1.10,2013-03-05 19:48:00,
2013-03-05 13:03:00,44.8,2.0,30.20,West,271,3.0,7.0,17,0.00,,,0.00,842,weatherlink.com 1.10,2013-03-05 20:03:00,
2013-03-05 13:18:00,44.8,2.0,30.20,West,268,2.0,6.0,17,0.00,,,0.00,830,weatherlink.com 1.10,2013-03-05 20:18:00,
2013-03-05 13:33:00,45.2,0.0,30.19,West,261,4.0,6.0,15,0.00,,,0.00,814,weatherlink.com 1.10,2013-03-05 20:33:00,
2013-03-05 13:48:00,45.3,0.0,30.19,SW,233,2.0,5.0,15,0.00,,,0.00,795,weatherlink.com 1.10,2013-03-05 20:48:00,
2013-03-05 14:03:00,46.3,-2.0,30.18,SSW,208,2.0,5.0,13,0.00,,,0.00,770,weatherlink.com 1.10,2013-03-05 21:03:00,
2013-03-05 14:18:00,46.4,-6.0,30.18,SW,225,2.0,4.0,11,0.00,,,0.00,744,weatherlink.com 1.10,2013-03-05 21:18:00,
2013-03-05 14:33:00,46.9,0.0,30.18,WNW,299,5.0,6.0,14,0.00,,,0.00,712,weatherlink.com 1.10,2013-03-05 21:33:00,
2013-03-05 14:48:00,46.5,2.0,30.17,WSW,247,2.0,5.0,16,0.00,,,0.00,668,weatherlink.com 1.10,2013-03-05 21:48:00,
2013-03-05 15:03:00,46.3,-6.0,30.17,West,261,1.0,4.0,11,0.00,,,0.00,629,weatherlink.com 1.10,2013-03-05 22:03:00,
2013-03-05 15:18:00,46.5,-2.0,30.17,WNW,288,0.0,4.0,13,0.00,,,0.00,582,weatherlink.com 1.10,2013-03-05 22:18:00,
2013-03-05 15:33:00,46.1,6.0,30.17,WNW,300,1.0,4.0,19,0.00,,,0.00,526,weatherlink.com 1.10,2013-03-05 22:33:00,
2013-03-05 15:48:00,45.9,6.0,30.17,WNW,294,3.0,6.0,19,0.00,,,0.00,461,weatherlink.com 1.10,2013-03-05 22:48:00,
2013-03-05 16:03:00,45.0,4.0,30.17,WSW,253,2.0,5.0,18,0.00,,,0.00,338,weatherlink.com 1.10,2013-03-05 23:03:00,
2013-03-05 16:19:00,43.9,5.0,30.16,WNW,286,1.0,2.0,20,0.00,,,0.00,257,weatherlink.com 1.10,2013-03-05 23:19:00,
2013-03-05 16:34:00,43.2,2.0,30.16,North,360,0.0,4.0,18,0.00,,,0.00,237,weatherlink.com 1.10,2013-03-05 23:34:00,
2013-03-05 16:49:00,42.4,1.0,30.16,North,360,0.0,2.0,18,0.00,,,0.00,127,weatherlink.com 1.10,2013-03-05 23:49:00,
2013-03-05 17:04:00,42.4,0.0,30.16,North,360,0.0,1.0,17,0.00,,,0.00,72,weatherlink.com 1.10,2013-03-06 00:04:00,
2013-03-05 17:19:00,40.1,5.0,30.16,North,360,0.0,0.0,23,0.00,,,0.00,39,weatherlink.com 1.10,2013-03-06 00:19:00,
2013-03-05 17:34:00,38.8,1.0,30.15,North,360,0.0,0.0,20,0.00,,,0.00,23,weatherlink.com 1.10,2013-03-06 00:34:00,
2013-03-05 17:49:00,38.0,4.0,30.16,North,360,0.0,0.0,24,0.00,,,0.00,16,weatherlink.com 1.10,2013-03-06 00:49:00,
2013-03-05 18:04:00,36.6,5.0,30.16,North,360,0.0,0.0,26,0.00,,,0.00,0,weatherlink.com 1.10,2013-03-06 01:04:00,
2013-03-05 18:19:00,35.8,8.0,30.16,North,360,0.0,2.0,32,0.00,,,0.00,0,weatherlink.com 1.10,2013-03-06 01:19:00,
2013-03-05 18:34:00,34.1,4.0,30.16,North,360,0.0,3.0,28,0.00,,,0.00,0,weatherlink.com 1.10,2013-03-06 01:34:00,
2013-03-05 18:49:00,34.8,10.0,30.17,North,360,0.0,1.0,35,0.00,,,0.00,0,weatherlink.com 1.10,2013-03-06 01:49:00,
2013-03-05 19:04:00,33.6,8.0,30.17,North,360,0.0,1.0,34,0.00,,,0.00,0,weatherlink.com 1.10,2013-03-06 02:04:00,
2013-03-05 19:19:00,33.4,10.0,30.17,North,360,0.0,1.0,38,0.00,,,0.00,0,weatherlink.com 1.10,2013-03-06 02:19:00,
2013-03-05 19:34:00,32.8,8.0,30.17,North,360,0.0,2.0,36,0.00,,,0.00,0,weatherlink.com 1.10,2013-03-06 02:34:00,
2013-03-05 19:50:00,32.3,8.0,30.18,North,360,0.0,2.0,36,0.00,,,0.00,0,weatherlink.com 1.10,2013-03-06 02:50:00,
2013-03-05 20:05:00,32.2,7.0,30.18,North,360,0.0,2.0,35,0.00,,,0.00,0,weatherlink.com 1.10,2013-03-06 03:05:00,
2013-03-05 20:20:00,31.4,7.0,30.18,NE,38,0.0,2.0,36,0.00,,,0.00,0,weatherlink.com 1.10,2013-03-06 03:20:00,
2013-03-05 20:35:00,31.5,7.0,30.19,NE,38,0.0,0.0,36,0.00,,,0.00,0,weatherlink.com 1.10,2013-03-06 03:35:00,
2013-03-05 20:50:00,31.3,7.0,30.19,NE,38,0.0,2.0,36,0.00,,,0.00,0,weatherlink.com 1.10,2013-03-06 03:50:00,
2013-03-05 21:05:00,31.8,6.0,30.19,NE,39,0.0,0.0,34,0.00,,,0.00,0,weatherlink.com 1.10,2013-03-06 04:05:00,
2013-03-05 21:20:00,31.0,5.0,30.19,NE,38,0.0,0.0,33,0.00,,,0.00,0,weatherlink.com 1.10,2013-03-06 04:20:00,
2013-03-05 21:35:00,30.0,5.0,30.19,NE,38,0.0,1.0,34,0.00,,,0.00,0,weatherlink.com 1.10,2013-03-06 04:35:00,
2013-03-05 21:50:00,29.9,6.0,30.19,NE,38,0.0,0.0,37,0.00,,,0.00,0,weatherlink.com 1.10,2013-03-06 04:50:00,
2013-03-05 22:05:00,29.6,4.0,30.19,NE,41,0.0,2.0,34,0.00,,,0.00,0,weatherlink.com 1.10,2013-03-06 05:05:00,
2013-03-05 22:20:00,29.9,3.0,30.19,NE,41,0.0,1.0,32,0.00,,,0.00,0,weatherlink.com 1.10,2013-03-06 05:20:00,
2013-03-05 22:35:00,31.0,6.0,30.20,SSW,199,1.0,2.0,34,0.00,,,0.00,0,weatherlink.com 1.10,2013-03-06 05:35:00,
2013-03-05 22:50:00,32.6,5.0,30.19,North,360,0.0,2.0,31,0.00,,,0.00,0,weatherlink.com 1.10,2013-03-06 05:50:00,
2013-03-05 23:06:00,31.9,7.0,30.19,North,360,0.0,2.0,35,0.00,,,0.00,0,weatherlink.com 1.10,2013-03-06 06:06:00,
2013-03-05 23:21:00,32.2,3.0,30.18,North,360,0.0,1.0,29,0.00,,,0.00,0,weatherlink.com 1.10,2013-03-06 06:21:00,
2013-03-05 23:36:00,31.5,7.0,30.18,North,360,0.0,2.0,36,0.00,,,0.00,0,weatherlink.com 1.10,2013-03-06 06:36:00,
2013-03-05 23:51:00,33.2,7.0,30.18,SSW,202,0.0,2.0,33,0.00,,,0.00,0,weatherlink.com 1.10,2013-03-06 06:51:00,